[[{"header":{"parameterUnit":"m.s-1","parameterCategory":1,"la1":30.2991,"la2":30.254,"lo1":-89.0895,"lo2":-89.0444,"dy":0.0017,"dx":0.0017,"nx":28,"ny":28,"refTime":"2025-01-10T09:00:00:Z","depth":0,"parameterNumber":2,"parameterNumberName":"U-component_of_WINDS"},"data":[0,0,0,0,0,0,0,0,0,0,0,0,0,0,0,0,0,0,0,0,0,0,0,0,0,0,0,0,0,0,0,0,0,0,0,0,0,0,0,0,0,0,0,0,0,0,0,0,0,0,0,0,0,0,0,0,0,0,-0.5368,-0.5368,0,-0.5401,-0.5401,-0.5402,-0.5397,-0.5396,-0.5396,-0.5395,-0.5429,-0.543,-0.5432,0,0,0,0,0,0,0,0,0,0,0,0,0,-0.5299,-0.53,-0.5368,-0.5368,-0.5368,-0.5401,-0.5401,-0.5402,-0.5397,-0.5396,-0.5396,-0.5395,-0.5429,-0.543,-0.5432,0,0,0,0,0,0,0,0,0,0,0,0,0,-0.533,-0.53,-0.5367,-0.537,-0.537,-0.5401,-0.5401,-0.5402,-0.5397,-0.5396,-0.5395,-0.5395,-0.5428,-0.543,-0.5432,-0.5462,0,0,-0.5439,-0.544,0,0,0,0,0,0,0,0,-0.5328,-0.5333,-0.5369,-0.537,-0.537,-0.5394,-0.539,-0.5422,-0.5397,-0.5387,-0.5395,-0.5394,-0.5418,-0.5421,-0.5429,-0.5464,-0.5465,-0.5439,-0.544,-0.5441,-0.5442,0,0,0,0,0,0,0,-0.5326,-0.5331,-0.5381,-0.537,-0.537,-0.5369,-0.5373,-0.5396,-0.5407,-0.5388,-0.5388,-0.5392,-0.5418,-0.5427,-0.543,-0.5466,-0.5439,-0.5441,-0.5442,-0.5443,-0.5526,-0.5527,0,0,0,0,0,0,-0.5323,-0.5329,-0.538,-0.5382,-0.5347,-0.5371,-0.5375,-0.5387,-0.5407,-0.5409,-0.5392,-0.5391,-0.5424,-0.5427,-0.5431,-0.5467,-0.5441,-0.5443,-0.5444,-0.5525,-0.5526,-0.5527,0,0,0,0,0,0,-0.5322,-0.5328,-0.5378,-0.5355,-0.5362,-0.5373,-0.5387,-0.5388,-0.5397,-0.541,-0.5412,-0.5399,-0.5423,-0.5428,-0.5454,-0.5468,-0.5444,-0.5446,-0.5524,-0.5525,-0.5527,-0.5539,0,0,0,0,0,0,-0.532,-0.5327,-0.5339,-0.5356,-0.5363,-0.5401,-0.5388,-0.539,-0.5401,-0.54,-0.5417,-0.5419,-0.5423,-0.5451,-0.5456,-0.547,-0.5448,-0.5523,-0.5525,-0.5526,-0.5537,-0.5541,-0.5543,0,0,0,0,0,-0.5318,-0.5342,-0.534,-0.5346,-0.5378,-0.5402,-0.5406,-0.5411,-0.5402,-0.5414,-0.5422,-0.5418,-0.5466,-0.5454,-0.546,-0.5475,-0.5522,-0.5524,-0.5526,-0.5536,-0.554,-0.5543,0,0,0,0,0,0,-0.5326,-0.5344,-0.5342,-0.5372,-0.5386,-0.5401,-0.5416,-0.5415,-0.5431,-0.5429,-0.5434,-0.5438,-0.5464,-0.5472,-0.5459,-0.5504,-0.5493,-0.5496,-0.5498,-0.5502,-0.5505,-0.5502,-0.545,0,0,0,0,0,-0.5332,-0.535,-0.5364,-0.539,-0.5396,-0.5405,-0.5416,-0.5418,-0.5432,-0.5438,-0.5448,-0.5462,-0.5479,-0.5491,-0.5508,-0.5538,-0.5542,-0.5551,-0.5554,-0.5557,-0.556,-0.5575,-0.5579,-0.5534,-0.5534,-0.5534,0,0,-0.5343,-0.5355,-0.5366,-0.5392,-0.5402,-0.5421,-0.541,-0.543,-0.5444,-0.5441,-0.5466,-0.5474,-0.549,-0.5518,-0.5531,-0.5525,-0.5573,-0.5559,-0.5561,-0.5563,-0.5578,-0.5582,-0.5586,-0.5535,-0.5535,-0.5535,0,0,-0.5373,-0.5385,-0.5406,-0.5417,-0.5433,-0.5439,-0.5444,-0.546,-0.5465,-0.5491,-0.5488,-0.5504,-0.5535,-0.5546,-0.5556,-0.5589,-0.5587,-0.5595,-0.561,-0.5625,-0.5629,-0.5632,-0.5643,-0.5647,-0.5598,-0.5598,-0.5598,0,-0.5386,-0.5414,-0.5418,-0.5438,-0.5449,-0.5447,-0.5468,-0.5479,-0.55,-0.5507,-0.5501,-0.5539,-0.5549,-0.5579,-0.5587,-0.5596,-0.5601,-0.5593,-0.5628,-0.5631,-0.5634,-0.5645,-0.5649,-0.5598,-0.5598,-0.5598,-0.5598,0,-0.5427,-0.5447,-0.5463,-0.5483,-0.5495,-0.5516,-0.5523,-0.5535,-0.5536,-0.5542,-0.5567,-0.558,-0.5599,-0.5606,-0.5608,-0.5637,-0.5633,-0.5627,-0.5615,-0.5639,-0.565,-0.5654,-0.56,-0.5599,-0.5599,-0.5599,0,0,-0.5465,-0.5486,-0.5492,-0.55,-0.5518,-0.5533,-0.5553,-0.5572,-0.5582,-0.5597,-0.5614,-0.5639,-0.5634,-0.5645,-0.5647,-0.5661,-0.5685,-0.5653,-0.5654,-0.5658,-0.5717,-0.5721,-0.5726,-0.5684,-0.5684,-0.5685,-0.5716,0,-0.5496,-0.5532,-0.5536,-0.5569,-0.5586,-0.5584,-0.5602,-0.5614,-0.562,-0.5636,-0.5642,-0.566,-0.5652,-0.5659,-0.5672,-0.568,-0.5697,-0.5677,-0.5699,-0.57,-0.5695,-0.5731,-0.5735,-0.5763,-0.572,-0.572,-0.5721,0,-0.5538,-0.5553,-0.5587,-0.5601,-0.5609,-0.5625,-0.5642,-0.5657,-0.5671,-0.5674,-0.5686,-0.5686,-0.5706,-0.5694,-0.5722,-0.5709,-0.5718,-0.5722,-0.5724,-0.5725,-0.5711,-0.5733,-0.5772,-0.5776,-0.5727,-0.5727,-0.5726,0,-0.556,-0.559,-0.5614,-0.5621,-0.5639,-0.565,-0.5657,-0.567,-0.5681,-0.5696,-0.5703,-0.572,-0.5729,-0.5742,-0.5746,-0.5737,-0.5774,-0.5762,-0.5777,-0.5777,-0.5784,-0.5784,-0.5825,-0.5791,-0.5791,-0.5791,-0.5791,0,-0.5595,-0.5616,-0.5624,-0.5639,-0.5661,-0.5665,-0.5688,-0.5695,-0.5706,-0.5722,-0.5721,-0.5736,-0.5741,-0.5757,-0.576,-0.5782,-0.5787,-0.579,-0.579,-0.5789,-0.5789,-0.5795,-0.5793,-0.5792,-0.5792,-0.5792,-0.5791,0,-0.5624,-0.5631,-0.5656,-0.5671,-0.5674,-0.5691,-0.5703,-0.5716,-0.5722,-0.5742,-0.5747,-0.5755,-0.5773,-0.5779,-0.5801,-0.5803,-0.5829,-0.5828,-0.5824,-0.5824,-0.5838,-0.5837,-0.5885,-0.5891,-0.5853,-0.5854,-0.5854,0,-0.5646,-0.5661,-0.5677,-0.5687,-0.5695,-0.5712,-0.5723,-0.5727,-0.5739,-0.5755,-0.5767,-0.5784,-0.5799,-0.5827,-0.5836,-0.5852,-0.5851,-0.5867,-0.5854,-0.5852,-0.585,-0.5849,-0.585,-0.5869,-0.587,-0.587,-0.587,0,-0.5683,-0.5685,-0.57,-0.5717,-0.573,-0.5743,-0.5756,-0.5764,-0.577,-0.5783,-0.5801,-0.5812,-0.5834,-0.5851,-0.5868,-0.5875,-0.5874,-0.5874,-0.5878,-0.5877,-0.5874,-0.5875,-0.583,-0.5873,-0.5873,-0.5872,-0.5872,-0.5872,-0.5708,-0.5722,-0.5735,-0.5752,-0.5762,-0.5773,-0.5787,-0.5794,-0.5809,-0.5827,-0.5829,-0.5848,-0.5861,-0.5883,-0.5891,-0.5906,-0.5902,-0.5908,-0.5909,-0.5911,-0.5911,-0.5872,-0.5909,-0.5909,-0.5909,-0.5909,-0.5909,0,-0.5744,-0.5752,-0.5768,-0.5786,-0.5799,-0.5796,-0.581,-0.5821,-0.5838,-0.585,-0.5864,-0.5885,-0.5901,-0.591,-0.5927,-0.5937,-0.5936,-0.5941,-0.594,-0.5942,-0.5915,-0.5909,-0.5941,-0.5941,-0.5941,-0.5941,-0.5941,-0.5941,-0.5765,-0.5787,-0.5791,-0.5818,-0.5826,-0.5845,-0.5853,-0.5864,-0.5873,-0.5896,-0.591,-0.5915,-0.5926,-0.5943,-0.5958,-0.596,-0.5966,-0.5971,-0.5972,-0.5947,-0.5944,-0.5941,-0.5935,-0.5972,-0.5972,-0.5998,-0.5998,-0.5998]},{"header":{"parameterUnit":"m.s-1","parameterCategory":1,"la1":30.2991,"la2":30.254,"lo1":-89.0895,"lo2":-89.0444,"dy":0.0017,"dx":0.0017,"nx":28,"ny":28,"refTime":"2025-01-10T09:00:00:Z","depth":0,"parameterNumber":3,"parameterNumberName":"V-component_of_WINDS"},"data":[0,0,0,0,0,0,0,0,0,0,0,0,0,0,0,0,0,0,0,0,0,0,0,0,0,0,0,0,0,0,0,0,0,0,0,0,0,0,0,0,0,0,0,0,0,0,0,0,0,0,0,0,0,0,0,0,0,0,-2.0812,-2.0813,0,-2.0901,-2.0902,-2.0903,-2.0908,-2.0907,-2.0906,-2.0905,-2.0994,-2.0997,-2.1001,0,0,0,0,0,0,0,0,0,0,0,0,0,-2.0645,-2.0648,-2.0812,-2.0813,-2.0814,-2.0901,-2.0902,-2.0903,-2.0908,-2.0907,-2.0906,-2.0904,-2.0993,-2.0997,-2.1001,0,0,0,0,0,0,0,0,0,0,0,0,0,-2.0724,-2.0649,-2.0812,-2.0827,-2.0829,-2.09,-2.0902,-2.0903,-2.0908,-2.0907,-2.0905,-2.0904,-2.0992,-2.0997,-2.1002,-2.1063,0,0,-2.1017,-2.1019,0,0,0,0,0,0,0,0,-2.0719,-2.073,-2.0824,-2.0826,-2.0829,-2.0892,-2.0876,-2.0957,-2.0909,-2.0878,-2.0905,-2.0903,-2.0961,-2.0969,-2.0989,-2.1067,-2.1071,-2.1017,-2.102,-2.1022,-2.1024,0,0,0,0,0,0,0,-2.0714,-2.0726,-2.0847,-2.0825,-2.0828,-2.0829,-2.0838,-2.0891,-2.0927,-2.0881,-2.0881,-2.0892,-2.0962,-2.0984,-2.0991,-2.1072,-2.1017,-2.1021,-2.1025,-2.1026,-2.1203,-2.1205,0,0,0,0,0,0,-2.0706,-2.0721,-2.0844,-2.085,-2.0769,-2.0833,-2.0844,-2.0873,-2.0927,-2.0933,-2.0893,-2.0892,-2.0976,-2.0985,-2.0994,-2.1068,-2.1022,-2.1027,-2.103,-2.1201,-2.1203,-2.1205,0,0,0,0,0,0,-2.0702,-2.0717,-2.0841,-2.0786,-2.0802,-2.0838,-2.087,-2.0876,-2.0897,-2.0936,-2.0942,-2.0909,-2.0975,-2.0987,-2.1045,-2.1071,-2.1029,-2.1034,-2.1199,-2.1202,-2.1204,-2.1217,0,0,0,0,0,0,-2.0697,-2.0715,-2.0739,-2.0786,-2.0805,-2.0891,-2.0872,-2.0878,-2.0906,-2.0905,-2.0952,-2.0958,-2.0975,-2.1038,-2.105,-2.1077,-2.1038,-2.1197,-2.1201,-2.1204,-2.1214,-2.1219,-2.1224,0,0,0,0,0,-2.0691,-2.0739,-2.0741,-2.0755,-2.0836,-2.0893,-2.0903,-2.0922,-2.0908,-2.0932,-2.0957,-2.0957,-2.1066,-2.1044,-2.1058,-2.1086,-2.1196,-2.12,-2.1203,-2.1212,-2.1218,-2.1224,0,0,0,0,0,0,-2.0694,-2.0746,-2.0748,-2.0813,-2.0848,-2.0894,-2.0925,-2.0928,-2.0968,-2.0965,-2.0986,-2.0997,-2.1054,-2.1076,-2.105,-2.1148,-2.1129,-2.1136,-2.1131,-2.1137,-2.1142,-2.1135,-2.1042,0,0,0,0,0,-2.0702,-2.0745,-2.0788,-2.0841,-2.0859,-2.0888,-2.0914,-2.0925,-2.0963,-2.0978,-2.1007,-2.1043,-2.1085,-2.1113,-2.1154,-2.1218,-2.1227,-2.1244,-2.1249,-2.1253,-2.1258,-2.1292,-2.13,-2.1218,-2.1218,-2.1218,0,0,-2.072,-2.0753,-2.0779,-2.0842,-2.0871,-2.0914,-2.0901,-2.0947,-2.0979,-2.0985,-2.1041,-2.1064,-2.1105,-2.1166,-2.1195,-2.1186,-2.1283,-2.1258,-2.126,-2.1264,-2.1297,-2.1304,-2.1311,-2.1221,-2.122,-2.122,0,0,-2.0773,-2.0803,-2.085,-2.0879,-2.0923,-2.0943,-2.0954,-2.0999,-2.1014,-2.1071,-2.1076,-2.1114,-2.1187,-2.1216,-2.124,-2.1303,-2.1304,-2.1316,-2.1341,-2.1374,-2.138,-2.1386,-2.1407,-2.1415,-2.1321,-2.1321,-2.1321,0,-2.0789,-2.0854,-2.0874,-2.092,-2.0947,-2.0954,-2.1001,-2.1028,-2.1083,-2.1101,-2.1092,-2.1183,-2.1211,-2.1278,-2.1294,-2.1313,-2.1326,-2.131,-2.1378,-2.1384,-2.139,-2.141,-2.1418,-2.1323,-2.1322,-2.1322,-2.1322,0,-2.0871,-2.0916,-2.0949,-2.1002,-2.1033,-2.1079,-2.1104,-2.1133,-2.1141,-2.1161,-2.1219,-2.1253,-2.1301,-2.1318,-2.1327,-2.1386,-2.138,-2.1374,-2.1356,-2.1398,-2.1418,-2.1426,-2.1324,-2.1324,-2.1323,-2.1323,0,0,-2.0929,-2.0992,-2.1003,-2.1027,-2.1075,-2.111,-2.1156,-2.1203,-2.1227,-2.1265,-2.1303,-2.1364,-2.1359,-2.1386,-2.1398,-2.1427,-2.1473,-2.1417,-2.1418,-2.1425,-2.1539,-2.1543,-2.1552,-2.1474,-2.1476,-2.1477,-2.1535,0,-2.0987,-2.107,-2.1088,-2.1158,-2.12,-2.1207,-2.1247,-2.128,-2.13,-2.1337,-2.1359,-2.1402,-2.1392,-2.1408,-2.1437,-2.1461,-2.1496,-2.1457,-2.1509,-2.1511,-2.1498,-2.1562,-2.1566,-2.162,-2.1543,-2.1545,-2.1546,0,-2.1066,-2.1105,-2.118,-2.1222,-2.124,-2.1276,-2.1319,-2.1355,-2.1393,-2.1405,-2.1436,-2.1444,-2.1491,-2.1471,-2.1536,-2.1509,-2.1531,-2.1546,-2.1548,-2.1553,-2.153,-2.1568,-2.1637,-2.1645,-2.1558,-2.1557,-2.1556,0,-2.1099,-2.117,-2.1224,-2.1244,-2.1295,-2.132,-2.1342,-2.1378,-2.1405,-2.1443,-2.1461,-2.1504,-2.1527,-2.156,-2.1579,-2.1563,-2.1642,-2.1624,-2.1652,-2.1652,-2.1668,-2.1667,-2.1741,-2.1684,-2.1684,-2.1684,-2.1683,0,-2.1161,-2.1206,-2.124,-2.1273,-2.1323,-2.1343,-2.1392,-2.1414,-2.1447,-2.1483,-2.1492,-2.1526,-2.155,-2.1587,-2.1603,-2.1653,-2.1664,-2.1674,-2.1678,-2.1673,-2.1672,-2.1687,-2.1684,-2.1686,-2.1685,-2.1685,-2.1684,0,-2.1207,-2.1231,-2.129,-2.1333,-2.1345,-2.138,-2.1416,-2.1448,-2.1468,-2.1514,-2.1526,-2.1557,-2.1601,-2.1624,-2.1679,-2.1689,-2.1746,-2.1747,-2.1733,-2.1734,-2.1761,-2.1758,-2.1848,-2.186,-2.1795,-2.1796,-2.1796,0,-2.1244,-2.1279,-2.1326,-2.1351,-2.1374,-2.1415,-2.1442,-2.1463,-2.1491,-2.1536,-2.1562,-2.1606,-2.1643,-2.1713,-2.174,-2.1782,-2.1784,-2.1812,-2.179,-2.1784,-2.1783,-2.178,-2.1783,-2.1816,-2.1817,-2.1817,-2.1818,0,-2.1308,-2.1318,-2.1358,-2.1401,-2.1433,-2.1468,-2.1502,-2.1522,-2.1548,-2.1579,-2.1624,-2.1653,-2.1709,-2.1752,-2.1796,-2.1818,-2.1822,-2.1824,-2.1833,-2.1828,-2.1818,-2.1823,-2.1743,-2.1822,-2.1822,-2.1821,-2.1821,-2.1821,-2.1351,-2.1381,-2.1419,-2.1462,-2.149,-2.1521,-2.1553,-2.1577,-2.1615,-2.1662,-2.1672,-2.172,-2.1755,-2.1815,-2.1838,-2.1875,-2.1869,-2.1882,-2.1885,-2.1887,-2.1888,-2.1813,-2.1883,-2.1883,-2.1883,-2.1883,-2.1883,0,-2.1414,-2.1438,-2.1478,-2.1525,-2.1559,-2.156,-2.1598,-2.1625,-2.1667,-2.1701,-2.1736,-2.1788,-2.183,-2.186,-2.1903,-2.1926,-2.1929,-2.1937,-2.1935,-2.194,-2.1891,-2.1879,-2.1934,-2.1934,-2.1934,-2.1934,-2.1934,-2.1934,-2.1451,-2.1503,-2.1517,-2.1583,-2.1607,-2.1653,-2.1675,-2.1704,-2.173,-2.1787,-2.1822,-2.1842,-2.1873,-2.1918,-2.1957,-2.1965,-2.1979,-2.1987,-2.1994,-2.1949,-2.1943,-2.1938,-2.1927,-2.199,-2.199,-2.204,-2.204,-2.204]}]]